Previsão horária em Al Hilla

Hoje, 30 Novembro, Segunda-feira

Tempo Temperatura Precipitação Vento Pressão Humidade
00:00 +16°C° 0 mm 1 m/s 762 mmHg 68%
01:00 +15°C° 0 mm 0 m/s 762 mmHg 69%
02:00 +15°C° 0 mm 0 m/s 762 mmHg 69%
03:00 +14°C° 0 mm 0 m/s 761 mmHg 69%
04:00 +14°C° 0 mm 0 m/s 762 mmHg 69%
05:00 +14°C° 0 mm 0 m/s 762 mmHg 70%
06:00 +14°C° 0 mm 0 m/s 762 mmHg 70%
07:00 +15°C° 0 mm 0 m/s 762 mmHg 65%
08:00 +18°C° 0 mm 1 m/s 762 mmHg 59%
09:00 +17°C° 0 mm 0 m/s 763 mmHg 53%
10:00 +20°C° 0 mm 1 m/s 763 mmHg 49%
11:00 +21°C° 0 mm 1 m/s 763 mmHg 45%
12:00 +21°C° 0 mm 2 m/s 763 mmHg 42%
13:00 +21°C° 0 mm 2 m/s 762 mmHg 40%
14:00 +21°C° 0 mm 2 m/s 761 mmHg 39%
15:00 +21°C° 0 mm 2 m/s 761 mmHg 39%
16:00 +21°C° 0 mm 2 m/s 761 mmHg 42%
17:00 +20°C° 0 mm 2 m/s 761 mmHg 45%
18:00 +19°C° 0 mm 2 m/s 761 mmHg 48%
19:00 +19°C° 0 mm 2 m/s 761 mmHg 50%
20:00 +18°C° 0 mm 2 m/s 761 mmHg 52%
21:00 +18°C° 0 mm 2 m/s 761 mmHg 54%
22:00 +18°C° 0 mm 1 m/s 761 mmHg 57%
23:00 +16°C° 0 mm 1 m/s 761 mmHg 60%

Amanhã, 1 Dezembro, Terça-feira

Tempo Temperatura Precipitação Vento Pressão Humidade
00:00 +15°C° 0 mm 0 m/s 761 mmHg 63%
01:00 +15°C° 0 mm 0 m/s 761 mmHg 63%
02:00 +14°C° 0 mm 0 m/s 761 mmHg 64%
03:00 +14°C° 0 mm 0 m/s 761 mmHg 64%
04:00 +14°C° 0 mm 0 m/s 761 mmHg 64%
05:00 +14°C° 0 mm 0 m/s 761 mmHg 64%
06:00 +14°C° 0 mm 1 m/s 761 mmHg 64%
07:00 +16°C° 0 mm 1 m/s 761 mmHg 60%
08:00 +18°C° 0 mm 1 m/s 761 mmHg 55%
09:00 +19°C° 0 mm 1 m/s 761 mmHg 50%
10:00 +20°C° 0 mm 1 m/s 761 mmHg 47%
11:00 +21°C° 0 mm 1 m/s 761 mmHg 43%
12:00 +22°C° 0 mm 1 m/s 761 mmHg 40%
13:00 +22°C° 0 mm 1 m/s 761 mmHg 38%
14:00 +22°C° 0 mm 1 m/s 760 mmHg 36%
15:00 +23°C° 0 mm 1 m/s 760 mmHg 34%
16:00 +21°C° 0 mm 2 m/s 760 mmHg 37%
17:00 +20°C° 0 mm 2 m/s 760 mmHg 39%
18:00 +20°C° 0 mm 2 m/s 760 mmHg 42%
19:00 +19°C° 0 mm 2 m/s 760 mmHg 43%
20:00 +19°C° 0 mm 2 m/s 761 mmHg 44%
21:00 +19°C° 0 mm 3 m/s 761 mmHg 45%
22:00 +19°C° 0 mm 3 m/s 761 mmHg 46%
23:00 +18°C° 0 mm 3 m/s 761 mmHg 48%

Depois de amanhã, 2 Dezembro, Quarta-feira

Tempo Temperatura Precipitação Vento Pressão Humidade
00:00 +18°C° 0 mm 3 m/s 761 mmHg 49%
01:00 +17°C° 0.8 mm 4 m/s 761 mmHg 59%
02:00 +15°C° 0.8 mm 5 m/s 761 mmHg 69%
03:00 +14°C° 0.8 mm 5 m/s 761 mmHg 79%
04:00 +14°C° 0.9 mm 4 m/s 761 mmHg 82%
05:00 +14°C° 0.9 mm 3 m/s 761 mmHg 84%
06:00 +16°C° 0.9 mm 2 m/s 761 mmHg 86%
07:00 +16°C° 0.7 mm 3 m/s 761 mmHg 83%
08:00 +15°C° 0.7 mm 4 m/s 761 mmHg 81%
09:00 +15°C° 0.7 mm 5 m/s 762 mmHg 79%
10:00 +15°C° 0.4 mm 4 m/s 761 mmHg 79%
11:00 +15°C° 0.4 mm 4 m/s 761 mmHg 79%
12:00 +15°C° 0.4 mm 4 m/s 761 mmHg 79%
13:00 +17°C° 0.2 mm 4 m/s 760 mmHg 77%
14:00 +17°C° 0.2 mm 4 m/s 760 mmHg 76%
15:00 +17°C° 0.2 mm 4 m/s 759 mmHg 75%
16:00 +17°C° 0.4 mm 3 m/s 760 mmHg 77%
17:00 +16°C° 0.4 mm 3 m/s 760 mmHg 80%
18:00 +16°C° 0.4 mm 2 m/s 760 mmHg 83%
19:00 +16°C° 0.1 mm 2 m/s 760 mmHg 83%
20:00 +16°C° 0.1 mm 2 m/s 760 mmHg 84%
21:00 +16°C° 0.1 mm 2 m/s 760 mmHg 84%
22:00 +16°C° 0 mm 2 m/s 761 mmHg 84%
23:00 +16°C° 0 mm 2 m/s 761 mmHg 84%

3 Dezembro, Quinta-feira

Tempo Temperatura Precipitação Vento Pressão Humidade
00:00 +16°C° 0 mm 2 m/s 761 mmHg 84%
01:00 +16°C° 0 mm 2 m/s 761 mmHg 83%
02:00 +16°C° 0 mm 2 m/s 761 mmHg 83%
03:00 +16°C° 0 mm 2 m/s 761 mmHg 83%
04:00 +16°C° 0 mm 2 m/s 761 mmHg 83%
05:00 +16°C° 0 mm 2 m/s 761 mmHg 82%
06:00 +17°C° 0 mm 2 m/s 761 mmHg 82%
07:00 +17°C° 0 mm 2 m/s 762 mmHg 80%
08:00 +17°C° 0 mm 2 m/s 762 mmHg 78%
09:00 +17°C° 0 mm 2 m/s 762 mmHg 76%
10:00 +18°C° 0 mm 2 m/s 762 mmHg 73%
11:00 +18°C° 0 mm 2 m/s 762 mmHg 70%
12:00 +19°C° 0 mm 2 m/s 762 mmHg 66%
13:00 +20°C° 0 mm 2 m/s 761 mmHg 64%
14:00 +20°C° 0 mm 2 m/s 761 mmHg 62%
15:00 +20°C° 0 mm 2 m/s 761 mmHg 59%
16:00 +20°C° 0 mm 2 m/s 761 mmHg 61%
17:00 +19°C° 0 mm 2 m/s 761 mmHg 62%
18:00 +19°C° 0 mm 1 m/s 761 mmHg 64%
19:00 +19°C° 0 mm 1 m/s 761 mmHg 63%
20:00 +19°C° 0 mm 1 m/s 762 mmHg 63%
21:00 +18°C° 0 mm 1 m/s 762 mmHg 62%
22:00 +17°C° 0 mm 2 m/s 762 mmHg 61%
23:00 +17°C° 0 mm 2 m/s 762 mmHg 61%

4 Dezembro, Sexta-feira

Tempo Temperatura Precipitação Vento Pressão Humidade
00:00 +17°C° 0 mm 2 m/s 762 mmHg 60%
01:00 +16°C° 0 mm 2 m/s 761 mmHg 60%
02:00 +16°C° 0 mm 2 m/s 761 mmHg 60%
03:00 +16°C° 0 mm 2 m/s 761 mmHg 60%
04:00 +15°C° 0 mm 2 m/s 761 mmHg 59%
05:00 +15°C° 0 mm 2 m/s 761 mmHg 59%
06:00 +15°C° 0 mm 2 m/s 761 mmHg 59%
07:00 +16°C° 0 mm 2 m/s 761 mmHg 55%
08:00 +17°C° 0 mm 2 m/s 761 mmHg 52%
09:00 +18°C° 0 mm 2 m/s 761 mmHg 49%
10:00 +19°C° 0 mm 2 m/s 761 mmHg 45%
11:00 +20°C° 0 mm 2 m/s 761 mmHg 42%
12:00 +21°C° 0 mm 2 m/s 760 mmHg 38%
13:00 +21°C° 0 mm 2 m/s 760 mmHg 38%
14:00 +21°C° 0 mm 2 m/s 760 mmHg 37%
15:00 +22°C° 0 mm 3 m/s 759 mmHg 37%
16:00 +21°C° 0 mm 2 m/s 759 mmHg 40%
17:00 +20°C° 0 mm 2 m/s 759 mmHg 44%
18:00 +19°C° 0 mm 2 m/s 759 mmHg 47%
19:00 +18°C° 0 mm 2 m/s 759 mmHg 48%
20:00 +18°C° 0 mm 2 m/s 760 mmHg 49%
21:00 +18°C° 0 mm 2 m/s 760 mmHg 49%
22:00 +18°C° 0 mm 2 m/s 760 mmHg 50%
23:00 +18°C° 0 mm 2 m/s 760 mmHg 50%

5 Dezembro, Sábado

Tempo Temperatura Precipitação Vento Pressão Humidade
00:00 +17°C° 0 mm 2 m/s 759 mmHg 50%
01:00 +17°C° 0 mm 2 m/s 759 mmHg 49%
02:00 +17°C° 0 mm 2 m/s 759 mmHg 49%
03:00 +17°C° 0 mm 2 m/s 759 mmHg 48%
04:00 +17°C° 0 mm 2 m/s 759 mmHg 49%
05:00 +17°C° 0 mm 2 m/s 759 mmHg 49%
06:00 +17°C° 0 mm 2 m/s 759 mmHg 50%
07:00 +17°C° 0 mm 2 m/s 759 mmHg 49%
08:00 +17°C° 0 mm 2 m/s 760 mmHg 47%
09:00 +18°C° 0 mm 2 m/s 760 mmHg 45%
10:00 +19°C° 0 mm 2 m/s 759 mmHg 43%
11:00 +20°C° 0 mm 2 m/s 759 mmHg 40%
12:00 +20°C° 0 mm 2 m/s 759 mmHg 38%
13:00 +21°C° 0 mm 2 m/s 758 mmHg 37%
14:00 +21°C° 0 mm 2 m/s 758 mmHg 37%
15:00 +21°C° 0 mm 3 m/s 758 mmHg 36%
16:00 +21°C° 0 mm 3 m/s 758 mmHg 38%
17:00 +20°C° 0 mm 3 m/s 758 mmHg 40%
18:00 +19°C° 0 mm 3 m/s 758 mmHg 42%
19:00 +19°C° 0 mm 3 m/s 758 mmHg 43%
20:00 +19°C° 0 mm 3 m/s 758 mmHg 44%
21:00 +18°C° 0 mm 3 m/s 758 mmHg 46%
22:00 +18°C° 0 mm 3 m/s 758 mmHg 46%
23:00 +18°C° 0 mm 3 m/s 757 mmHg 46%
Mostrar mais